User: anonymous   Login
Location: Keppel Henge
(44.7900°N, 80.9447°W)
Time: 23:01:53
(UTC-04:00)
Language:

Tiangong 2 - Orbit

View from above orbital plane
View from above orbital plane
View from above satellite
View from above satellite

Ground track
Ground track

The orbit data is extracted from the following two-line orbital elements,

1 41765U 16057A   18109.83115821  .00004081  00000-0  51710-4 0  9991
2 41765  42.7853 330.8508 0004229 234.0117 245.5978 15.60993950 90866
Epoch (UTC): 19 April 2018 19:56:52
Eccentricity: 0.0004229
inclination: 42.7853°
perigee height: 382 km
apogee height: 387 km
right ascension of ascending node: 330.8508°
argument of perigee: 234.0117°
revolutions per day: 15.60993950
mean anomaly at epoch: 245.5978°
orbit number at epoch: 9086

The dashed part of the orbit path shows where the satellite is in the earth's shadow,  

DLR